Toronto, Ontario

5:39 PM EST on January 19, 2018 (GMT -0500)
Toronto

Weather History for CYTZ - October, 2012

Change the Weather History Date:

Friday, October 12, 2012

  Actual Average Record
Temperature  
Mean Temperature 44 °F -  
Max Temperature 49 °F 52 °F 75 °F (2015)
Min Temperature 37 °F 40 °F 36 °F (2014)
Degree Days  
Heating Degree Days 21    
Moisture  
Dew Point 27 °F    
Average Humidity 51    
Maximum Humidity 87    
Minimum Humidity 19    
Precipitation  
Precipitation 0.00 in 0.08 in - ()
Sea Level Pressure  
Sea Level Pressure 30.31 in    
Wind  
Wind Speed 10 mph ()    
Max Wind Speed 18 mph    
Max Gust Speed 25 mph    
Visibility 9.1 miles    
Events Rain    
Averages and records for this station are not official NWS values.
T = Trace of Precipitation, MM = Missing Value Source: Averaged Metar Reports

Daily Weather History Graph

Daily Weather History Graph

Search for Another Location

Airport or City:

Trip Planner

Search our weather history database for the weather conditions in past years. The results will help you decide how hot, cold, wet, or windy it might be!

Date:

Astronomy

Oct. 12, 2012 Rise Set
Actual Time 7:28 AM EDT 6:38 PM EDT
Civil Twilight 6:59 AM EDT 7:07 PM EDT
Nautical Twilight 6:26 AM EDT 7:40 PM EDT
Astronomical Twilight 5:53 AM EDT 8:13 PM EDT
Moon 4:04 AM EDT (10/12) 4:51 PM EDT (10/12)
Length of Visible Light 12h 07m
Length of Day
11h 09m
Waning Crescent, 11% of the Moon is Illuminated
Oct 12
Waning Crescent
Oct 15
New
Oct 21
First Quarter
Oct 29
Full
Nov 6
Last Quarter

Hourly Weather History & Observations

Time (EDT) Temp. Windchill Dew Point Humidity Pressure Visibility Wind Dir Wind Speed Gust Speed Precip Events Conditions
12:00 AM 48.2 °F - 41.0 °F 76% 30.06 in 9.0 mi West 10.4 mph - N/A Rain Light Rain
12:36 AM 46.4 °F 41.5 °F 42.8 °F 87% 30.06 in 9.0 mi West 10.4 mph 21.9 mph N/A   Overcast
2:00 AM 46 °F - 37 °F 62% 30.09 in 10 mi WNW 13.8 mph - -   Overcast
3:00 AM 44.6 °F 38.8 °F 37.4 °F 76% 30.10 in 9.0 mi West 11.5 mph - N/A   Overcast
4:00 AM 44.6 °F 38.1 °F 35.6 °F 71% 30.11 in 9.0 mi West 13.8 mph - N/A   Overcast
5:00 AM 44.6 °F 38.8 °F 35.6 °F 71% 30.14 in 9.0 mi WNW 11.5 mph 18.4 mph N/A   Scattered Clouds
6:00 AM 42.8 °F 34.5 °F 33.8 °F 70% 30.17 in 9.0 mi NW 18.4 mph - N/A   Clear
7:00 AM 41.0 °F 33.1 °F 32.0 °F 70% 30.21 in 9.0 mi NNW 15.0 mph 20.7 mph N/A   Clear
8:00 AM 40 °F - 31 °F 59% 30.27 in 10 mi North 11.5 mph - -  
8:00 AM 39.2 °F 32.0 °F 30.2 °F 70% 30.27 in 9.0 mi North 11.5 mph 18.4 mph N/A   Clear
9:00 AM 42.8 °F 37.0 °F 30.2 °F 61% 30.30 in 9.0 mi North 10.4 mph - N/A   Clear
10:00 AM 44.6 °F 38.4 °F 24.8 °F 46% 30.34 in 9.0 mi NNW 12.7 mph 21.9 mph N/A   Clear
11:00 AM 44.6 °F 38.4 °F 23.0 °F 43% 30.37 in 9.0 mi North 12.7 mph 23.0 mph N/A   Clear
12:00 PM 46.4 °F 40.4 °F 21.2 °F 37% 30.39 in 9.0 mi NNW 13.8 mph 25.3 mph N/A   Clear
1:00 PM 48.2 °F - 23.0 °F 37% 30.40 in 9.0 mi NW 13.8 mph 25.3 mph N/A   Partly Cloudy
2:00 PM 48 °F - 19 °F 19% 30.40 in 10 mi NNW 11.5 mph - -  
2:00 PM 48.2 °F - 19.4 °F 32% 30.40 in 9.0 mi NNW 6.9 mph 21.9 mph N/A   Clear
3:00 PM 48.2 °F - 19.4 °F 32% 30.40 in 9.0 mi NNW 8.1 mph 19.6 mph N/A   Clear
4:00 PM 48.2 °F - 17.6 °F 30% 30.40 in 9.0 mi WNW 9.2 mph - N/A   Clear
5:00 PM 48.2 °F - 17.6 °F 30% 30.40 in 9.0 mi West 4.6 mph 19.6 mph N/A   Clear
6:00 PM 46.4 °F 41.9 °F 17.6 °F 32% 30.42 in 9.0 mi WNW 9.2 mph - N/A   Clear
7:00 PM 46.4 °F 42.9 °F 17.6 °F 32% 30.42 in 9.0 mi NNW 6.9 mph - N/A   Clear
8:00 PM 45 °F - 20 °F 24% 30.43 in 10 mi North 6.9 mph - -  
8:00 PM 44.6 °F 40.2 °F 19.4 °F 37% 30.43 in 9.0 mi North 8.1 mph - N/A   Clear
9:00 PM 44.6 °F 41.4 °F 21.2 °F 39% 30.44 in 9.0 mi North 5.8 mph - N/A   Clear
10:00 PM 39.2 °F - 28.4 °F 65% 30.45 in 9.0 mi South 2.3 mph - N/A   Clear
11:00 PM 37.4 °F - 32.0 °F 81% 30.45 in 9.0 mi SSE 2.3 mph - N/A   Clear